This demonstration page uses our WeatherBlox Daily Observations layout. Learn more.

Left ArrowRight Arrow

38.20091, -84.87328

Hourly Observations for January 20, 2020

Temp ( °F °C ) Dew Point ( °F °C ) Humidity (%) Winds ( mph kmh ) Pressure ( in mb ) Visibility ( mi km ) Precip ( " mm )
12:53 am 00:53 Cloudy 16 -8.9 8 -13.3 71 71 NW 7 11 30.48 1032 10 16 0.00 0.00
1:02 am 01:02 Cloudy 16 -8.9 8 -13.3 71 71 NW 8 13 30.51 1033 10 16 0.00 0.00
1:53 am 01:53 Mostly Cloudy 15 -9.4 8 -13.3 74 74 WNW 5 7 30.48 1032 10 16 0.00 0.00
2:53 am 02:53 Cloudy 16 -8.9 9 -12.8 74 74 Calm 30.49 1032 9 14 0.00 0.00
3:53 am 03:53 Cloudy 16 -8.9 9 -12.8 74 74 NW 7 11 30.49 1033 9 14 0.00 0.00
4:53 am 04:53 Cloudy 16 -8.9 10 -12.2 77 77 WNW 5 7 30.50 1033 7 11 0.00 0.00
5:01 am 05:01 Cloudy 16 -8.9 9 -12.8 74 74 NW 7 11 30.53 1034 7 11 0.00 0.00
5:53 am 05:53 Cloudy 16 -8.9 10 -12.2 77 77 NNW 9 15 30.51 1033 9 14 0.00 0.00
6:00 am 06:00 Cloudy 16 -8.9 10 -12.2 77 77 NW 8 13 30.55 1035 9 14 0.00 0.00
6:53 am 06:53 Cloudy 16 -8.9 10 -12.2 77 77 NW 6 9 30.54 1034 9 14 0.00 0.00
7:53 am 07:53 Cloudy 17 -8.3 10 -12.2 74 74 N 6 9 30.55 1035 9 14 0.00 0.00
8:06 am 08:06 Cloudy 17 -8.3 10 -12.2 74 74 N 5 7 30.59 1036 7 11 0.00 0.00
8:53 am 08:53 Cloudy with Haze 17 -8.3 11 -11.7 77 77 VRB 3 6 30.58 1036 3 5 0.00 0.00
9:04 am 09:04 Cloudy with Light Snow 18 -7.8 11 -11.7 74 74 N 7 11 30.61 1037 3 4 0.00 0.00
9:13 am 09:13 Cloudy with Light Snow 18 -7.8 11 -11.7 74 74 NNW 6 9 30.62 1037 2 3 0.00 0.00
9:53 am 09:53 Cloudy with Light Snow 19 -7.2 12 -11.1 74 74 NNW 5 7 30.60 1036 3 4 0.00 0.00
10:15 am 10:15 Cloudy with Light Snow 19 -7.2 12 -11.1 74 74 NNE 3 6 30.64 1037 2 3 0.00 0.00
10:34 am 10:34 Cloudy with Light Snow 20 -6.7 12 -11.1 71 71 NNE 7 11 30.63 1037 3 4 0.00 0.00
10:42 am 10:42 Cloudy with Haze 20 -6.7 12 -11.1 71 71 NNE 5 7 30.63 1037 4 6 0.00 0.00
10:53 am 10:53 Cloudy 21 -6.1 12 -11.1 68 68 NE 7 11 30.61 1037 7 11 0.00 0.00
11:53 am 11:53 Cloudy 21 -6.1 12 -11.1 68 68 Calm 30.61 1037 10 16 0.00 0.00
12:35 pm 12:35 Partly Cloudy 25 -3.9 13 -10.6 60 60 NNE 5 7 30.60 1036 10 16 0.00 0.00
12:53 pm 12:53 Sunny 26 -3.3 13 -10.6 57 57 VRB 5 7 30.58 1036 10 16 0.00 0.00
1:27 pm 13:27 Mostly Cloudy 25 -3.9 13 -10.6 60 60 VRB 7 11 30.58 1036 10 16 0.00 0.00
1:42 pm 13:42 Partly Cloudy 25 -3.9 12 -11.1 58 58 Calm 30.58 1036 10 16 0.00 0.00
1:53 pm 13:53 Mostly Sunny 26 -3.3 13 -10.6 57 57 Calm 30.56 1035 10 16 0.00 0.00
2:53 pm 14:53 Partly Cloudy 28 -2.2 13 -10.6 53 53 E 6 9 30.54 1034 10 16 0.00 0.00
3:53 pm 15:53 Mostly Cloudy 28 -2.2 13 -10.6 53 53 N 3 6 30.54 1034 10 16 0.00 0.00
4:53 pm 16:53 Mostly Cloudy 28 -2.2 13 -10.6 53 53 N 5 7 30.54 1034 10 16 0.00 0.00
5:53 pm 17:53 Cloudy 27 -2.8 13 -10.6 55 55 N 6 9 30.56 1035 10 16 0.00 0.00
6:53 pm 18:53 Cloudy 26 -3.3 14 -10 60 60 N 9 15 30.57 1035 10 16 0.00 0.00
7:53 pm 19:53 Cloudy 26 -3.3 14 -10 60 60 N 6 9 30.57 1035 10 16 0.00 0.00
8:53 pm 20:53 Cloudy 25 -3.9 14 -10 63 63 N 3 6 30.58 1036 10 16 0.00 0.00
9:53 pm 21:53 Cloudy 26 -3.3 13 -10.6 57 57 N 5 7 30.58 1035 10 16 0.00 0.00
10:53 pm 22:53 Cloudy 25 -3.9 13 -10.6 60 60 NNE 3 6 30.57 1035 10 16 0.00 0.00
11:53 pm 23:53 Cloudy 25 -3.9 14 -10 63 63 NNW 5 7 30.57 1035 10 16 0.00 0.00

Powered by AerisWeather